Location: Kampung Segan
(3.1399°N, 113.1002°E)
Time: 06:25:17
(UTC+00:00)

MOS 1-B Rocket - Pass Details

Date: 21 October 2025
Orbit: 891 x 1603 km, 99.0° (Epoch: 17 November)

Event Time Altitude Azimuth Distance (km) Brightness Sun altitude
Rises 18:19:06 0° 58° (ENE) 4,767 7.9 -57.6°
Reaches altitude 10° 18:25:56 10° 94° (E) 3,817 7.4 -55.9°
Maximum altitude 18:27:24 10° 103° (ESE) 3,777 7.4 -55.6°
Drops below altitude 10° 18:28:52 10° 113° (ESE) 3,807 7.4 -55.2°
Sets 18:35:32 0° 148° (SSE) 4,715 7.9 -53.6°
